Location: *
(47.6569°N, 7.4256°E)
Time: 21:27:36
(UTC+00:00)

ALOS - Pass Details

Date: 14 December 2019
Orbit: 684 x 685 km, 97.8° (Epoch: 17 January)

Event Time Altitude Azimuth Distance (km) Brightness Sun altitude
Rises 16:35:55 0° 189° (S) 3,037 6.1 -9.2°
Reaches altitude 10° 16:38:19 10° 198° (SSW) 2,127 5.4 -9.6°
Maximum altitude 16:42:34 35° 264° (W) 1,109 4.1 -10.2°
Drops below altitude 10° 16:46:52 10° 330° (NNW) 2,142 4.9 -10.9°
Sets 16:49:18 0° 340° (NNW) 3,063 5.6 -11.3°
